Regional Weather Roundup
Issued by NWS Charleston, SC

Current Version | Previous Version | Text Only | Print | Product List | Glossary Off
Versions: 1 2 3 4 5 6 7 8 9 10 11 12 13 14 15 16 17 18 19 20 21 22 23 24 25 26 27 28 29 30 31 32 33 34 35 36 37 38 39 40 41 42 43 44 45 46 47 48 49 50

000
ASUS42 KCHS 290011
RWRCHS

REGIONAL WEATHER ROUNDUP
NATIONAL WEATHER SERVICE CHARLESTON SC
700 PM EST WED JAN 28 2015

NOTE: "FAIR" INDICATES FEW OR NO CLOUDS BELOW 12,000 FEET WITH NO
SIGNIFICANT WEATHER AND/OR OBSTRUCTIONS TO VISIBILITY.

NOT ALL STATIONS ARE QUALITY CONTROLLED BY THE NATIONAL
WEATHER SERVICE. USE DATA WITH CAUTION...ESPECIALLY
DEWPOINT OBSERVATIONS.

SCZ027-030-031-034>040-042>050-290100-
...SOUTHEAST SOUTH CAROLINA...

CITY           SKY/WX    TMP DP  RH WIND       PRES   REMARKS
N CHARLESTON   CLEAR     39  24  55 CALM      30.31R
6HR MIN TEMP:  39; 6HR MAX TEMP:  49;

WATERFRONT PRK   N/A     45 N/A N/A NW3         N/A
MOUNT PLEASANT LGT RAIN N/A N/A N/A CALM      30.30R
PINOPOLIS      NOT AVBL
MONCKS CORNER  FAIR      39  28  65 CALM      30.30R
SUMMERVILLE    FAIR      39  28  65 CALM      30.31R
BEAUFORT MCAS  CLEAR     42  28  57 CALM      30.30R
6HR MIN TEMP:  42; 6HR MAX TEMP:  51;

BEAUFORT ARPT  FAIR      39  32  75 CALM      30.30R
HILTON HEAD IS CLEAR    N/A N/A N/A N3        30.30R
WALTERBORO     NOT AVBL
ALLENDALE      FAIR      41  27  56 CALM      30.28R

...SOUTHERN MIDLANDS AND PEE DEE...

CITY           SKY/WX    TMP DP  RH WIND       PRES   REMARKS
GEORGETOWN     NOT AVBL
KINGSTREE      NOT AVBL
ORANGEBURG     CLEAR     38  24  57 CALM      30.29R
6HR MIN TEMP:  37; 6HR MAX TEMP:  50;

BARNWELL       FAIR      39  28  65 CALM      30.29R
AIKEN          FAIR      37  28  70 CALM      30.30S
MANNING        FAIR      36  28  75 CALM      30.29S
COLUMBIA       CLEAR     41  27  57 CALM      30.28R
6HR MIN TEMP:  39; 6HR MAX TEMP:  52;

SUMTER         CLEAR     39  24  54 CALM      30.27R
6HR MIN TEMP:  38; 6HR MAX TEMP:  49; 6HR PCP: TRACE;

FLORENCE       CLEAR     39  24  55 CALM      30.29R
6HR MIN TEMP:  39; 6HR MAX TEMP:  49;

MYRTLE BEACH   CLEAR     37  18  44 CALM      30.32R
N MYRTLE BEACH CLEAR     38  21  50 CALM      30.30R
6HR MIN TEMP:  38; 6HR MAX TEMP:  48;


$$

GAZ063-065-086>088-099>101-113>116-118-119-134>141-150-290100-
...SOUTHEAST GEORGIA...

CITY           SKY/WX    TMP DP  RH WIND       PRES   REMARKS
SAVANNAH ARPT  PTCLDY    43  24  47 CALM      30.30R
6HR MIN TEMP:  42; 6HR MAX TEMP:  53;

HUNTER AAF     CLEAR     42  24  48 NE2       30.28R
6HR MIN TEMP:  42; 6HR MAX TEMP:  54;

FORT STEWART   CLEAR     42  30  62 CALM      30.28R
6HR MIN TEMP:  42; 6HR MAX TEMP:  54;

STATESBORO     CLEAR     36  31  82 CALM      30.29R
SYLVANIA       CLEAR     38  31  76 CALM      30.30R
CLAXTON        FAIR      39  32  75 CALM      30.29R

...CSRA...CENTRAL AND FAR SOUTHEAST GEORGIA...

CITY           SKY/WX    TMP DP  RH WIND       PRES   REMARKS
THOMSON        CLEAR     42  31  65 CALM      30.32R
AUGUSTA-BUSH   CLEAR     37  23  56 CALM      30.28R
6HR MIN TEMP:  37; 6HR MAX TEMP:  53;

AUGUSTA-DANIEL NOT AVBL
SWAINSBORO     FAIR      41  27  56 CALM      30.28R
VIDALIA        CLEAR     45  30  57 CALM      30.28R
EASTMAN        FAIR      42  33  70 CALM      30.30S
HAZLEHURST     FAIR      44  33  64 CALM      30.28R
ALMA           CLEAR     39  31  72 CALM      30.28R
6HR MIN TEMP:  39; 6HR MAX TEMP:  55;

WAYCROSS       CLEAR     46  37  70 CALM      30.28R
JESUP          FAIR      43  36  75 CALM      30.29R
BAXLEY         FAIR      45  34  65 CALM      30.28R
BRUNSWICK      CLEAR     43  34  70 CALM      30.30R
SAINT SIMONS   CLEAR     46  33  60 NE6       30.29R
6HR MIN TEMP:  45; 6HR MAX TEMP:  53;


$$

SCZ027-028-034-036>038-045-046-048>050-GAZ119-141-290100-
...LAKE AND SUPPLEMENTAL COASTAL OBSERVATIONS...

STATION/POSITION TIME  TEMP    WIND        PRES    WAVE   SWELL
                       AIR SEA DIR/SP/G            HT/PER HT/PER/DIR
                 (UTC) (F)     (DEG/KT/KT) (MB)    (FT/S) (FT/S/D)
UPR LAKE MARION  NOT AVBL
WINYAH BAY       NOT AVBL
LAKE MURRAY      2300   47     180/  1/  2 1024.4R
ACE BASIN NERRS  NOT AVBL
FORT PULASKI     2300   48 52   30/  6/  8 1025.8R
SAPELO ISLAND    2300   47      40/  4     1025.0R

$$

ANZ835-935-AMZ111-154-330-350-352-354-370-450-454-472-290100-
...C-MAN AND BUOY OBSERVATIONS...

STATION/POSITION TIME  TEMP    WIND        PRES    WAVE   SWELL
                       AIR SEA DIR/SP/G            HT/PER HT/PER/DIR
                 (UTC) (F)     (DEG/KT/KT) (MB)    (FT/S) (FT/S/D)
BUOY 41004       2350   49 65  350/ 12/ 16 1025.5R   4/ 6   3/ 6
BUOY 41008       2350   48 54   40/ 12/ 14 1025.7R   3/ 6   2/ 50/ 6
FOLLY BEACH CMAN 2300   43     340/  4/  6 1026.1R
CAPERS NEARSHORE 2300   47      10/ 10/ 10   N/A
FRIPP NEARSHORE  2300   47     350/ 10/ 10 1025.0R


STATION/POSITION TIME  TEMP    WIND        PRES    WAVE   SWELL
                       AIR SEA DIR/SP/G            HT/PER HT/PER/DIR
                 (UTC) (F)     (DEG/KT/KT) (MB)    (FT/S) (FT/S/D)
5E ST. MARYS GA  NOT AVBL
FRYING PAN BUOY  2350   46 63  350/ 14/ 19 1025.7R   4/ 5   2/100/ 9
BUOY 41025       2350   41     340/ 17/ 21 1023.6R   6/10   5/ 40/10
CAPE LOOKOUT NC  2300   41     340/ 10/ 11 1024.3R
BUOY 41002       2350   56 72  340/ 23/ 29 1020.2R  10/ 8   5/ 10/11
BUOY 41010       2320   61 76  360/ 17/ 23 1021.8R
ST AUGUSTINE FL  0000   49      20/ 12/ 13 1025.7R


$$



USA.gov is the U.S. government's official web portal to all federal, state and local government web resources and services.